| time (UTC) | temp C | wind direction | speed KPH | gust KPH | rain 1hr cm | rain 24hr cm | rain mn cm | humidity % | barometer mb |
| 20260505101509 | 16 | 213 | 4.8 | 19.3 | 0.00 | 0.00 | 0.00 | 67 | 1010.8 |
| 20260505101009 | 16 | 215 | 6.4 | 19.3 | 0.00 | 0.00 | 0.00 | 68 | 1010.7 |
| 20260505100508 | 16 | 217 | 6.4 | 19.3 | 0.00 | 0.00 | 0.00 | 68 | 1010.7 |
| 20260505100009 | 16 | 218 | 6.4 | 19.3 | 0.00 | 0.00 | 0.00 | 70 | 1010.7 |
| 20260505094009 | 15 | 200 | 3.2 | 16.1 | 0.00 | 0.00 | 0.00 | 73 | 1010.7 |
| 20260505093509 | 15 | 201 | 3.2 | 9.7 | 0.00 | 0.00 | 0.00 | 73 | 1010.8 |
| 20260505093009 | 15 | 212 | 1.6 | 4.8 | 0.00 | 0.00 | 0.00 | 73 | 1010.8 |
| 20260505092509 | 15 | 220 | 1.6 | 6.4 | 0.00 | 0.00 | 0.00 | 73 | 1010.8 |
| 20260505091509 | 15 | 254 | 1.6 | 6.4 | 0.00 | 0.00 | 0.00 | 75 | 1010.7 |
| 20260505090509 | 14 | 177 | 1.6 | 8.0 | 0.00 | 0.00 | 0.00 | 76 | 1010.3 |
| 20260505090009 | 14 | 177 | 1.6 | 6.4 | 0.00 | 0.00 | 0.00 | 77 | 1010.3 |
| 20260505085509 | 14 | 184 | 1.6 | 6.4 | 0.00 | 0.00 | 0.00 | 77 | 1010.5 |
| 20260505085008 | 14 | 194 | 1.6 | 4.8 | 0.00 | 0.00 | 0.00 | 77 | 1010.5 |
| 20260505084509 | 14 | 198 | 1.6 | 3.2 | 0.00 | 0.00 | 0.00 | 77 | 1010.6 |
| 20260505084009 | 14 | 187 | 1.6 | 4.8 | 0.00 | 0.00 | 0.00 | 76 | 1010.6 |
| 20260505083508 | 14 | 196 | 1.6 | 4.8 | 0.00 | 0.00 | 0.00 | 76 | 1010.6 |
| 20260505083009 | 14 | 218 | 1.6 | 4.8 | 0.00 | 0.00 | 0.00 | 75 | 1010.7 |
| 20260505082509 | 15 | 216 | 1.6 | 4.8 | 0.00 | 0.00 | 0.00 | 75 | 1010.8 |
| 20260505082009 | 15 | 223 | 1.6 | 6.4 | 0.00 | 0.00 | 0.00 | 75 | 1010.8 |
| 20260505081509 | 15 | 235 | 1.6 | 6.4 | 0.00 | 0.00 | 0.00 | 75 | 1010.7 |
| 20260505081009 | 15 | 227 | 3.2 | 14.5 | 0.00 | 0.00 | 0.00 | 75 | 1010.6 |
| 20260505080508 | 14 | 221 | 3.2 | 14.5 | 0.00 | 0.00 | 0.00 | 76 | 1010.7 |
| 20260505080010 | 14 | 215 | 3.2 | 11.3 | 0.00 | 0.00 | 0.00 | 77 | 1010.6 |
| 20260505075509 | 13 | 224 | 3.2 | 11.3 | 0.00 | 0.00 | 0.00 | 77 | 1010.6 |
| 20260505074008 | 12 | 210 | 1.6 | 4.8 | 0.00 | 0.00 | 0.00 | 84 | 1010.7 |
| 20260505073509 | 12 | 201 | 1.6 | 4.8 | 0.00 | 0.00 | 0.00 | 84 | 1010.7 |
| 20260505073009 | 11 | 194 | 1.6 | 4.8 | 0.00 | 0.00 | 0.00 | 84 | 1010.7 |
| 20260505072509 | 11 | 202 | 1.6 | 6.4 | 0.00 | 0.00 | 0.00 | 84 | 1010.7 |
| 20260505072009 | 11 | 215 | 0.0 | 6.4 | 0.00 | 0.00 | 0.00 | 83 | 1010.7 |
| 20260505071508 | 11 | 184 | 0.0 | 1.6 | 0.00 | 0.00 | 0.00 | 83 | 1010.6 |
| 20260505070508 | 11 | 184 | 0.0 | 1.6 | 0.00 | 0.00 | 0.00 | 82 | 1010.5 |
| 20260505070009 | 12 | 184 | 0.0 | 1.6 | 0.00 | 0.00 | 0.00 | 82 | 1010.5 |
| 20260505065509 | 12 | 0 | 0.0 | 0.0 | 0.00 | 0.00 | 0.00 | 81 | 1010.4 |
| 20260505065008 | 12 | 184 | 0.0 | 1.6 | 0.00 | 0.00 | 0.00 | 80 | 1010.5 |
| 20260505064509 | 12 | 184 | 0.0 | 1.6 | 0.00 | 0.00 | 0.00 | 80 | 1010.4 |
| 20260505064009 | 12 | 184 | 0.0 | 1.6 | 0.00 | 0.00 | 0.00 | 80 | 1010.4 |
| 20260505063008 | 12 | 0 | 0.0 | 0.0 | 0.00 | 0.00 | 0.00 | 79 | 1010.6 |
| 20260505062509 | 12 | 0 | 0.0 | 0.0 | 0.00 | 0.00 | 0.00 | 79 | 1010.6 |
| 20260505062009 | 12 | 0 | 0.0 | 0.0 | 0.00 | 0.00 | 0.00 | 79 | 1010.6 |
| 20260505061009 | 12 | 184 | 0.0 | 1.6 | 0.00 | 0.00 | 0.00 | 78 | 1010.6 |
| 20260505060508 | 12 | 184 | 0.0 | 1.6 | 0.00 | 0.00 | 0.00 | 78 | 1010.6 |
| 20260505060009 | 13 | 184 | 0.0 | 1.6 | 0.00 | 0.00 | 0.00 | 77 | 1010.6 |
| 20260505055509 | 13 | 184 | 0.0 | 3.2 | 0.00 | 0.00 | 0.00 | 76 | 1010.6 |
| 20260505055008 | 13 | 201 | 0.0 | 4.8 | 0.00 | 0.00 | 0.00 | 76 | 1010.6 |
| 20260505054509 | 13 | 225 | 0.0 | 4.8 | 0.00 | 0.00 | 0.00 | 76 | 1010.6 |
| 20260505054008 | 13 | 253 | 0.0 | 4.8 | 0.00 | 0.00 | 0.00 | 76 | 1010.7 |
| 20260505053509 | 13 | 234 | 1.6 | 9.7 | 0.00 | 0.00 | 0.00 | 76 | 1010.7 |
| 20260505053009 | 13 | 220 | 1.6 | 9.7 | 0.00 | 0.00 | 0.00 | 76 | 1010.8 |
| 20260505052508 | 13 | 216 | 1.6 | 6.4 | 0.00 | 0.00 | 0.00 | 76 | 1010.7 |
| 20260505052009 | 13 | 213 | 1.6 | 6.4 | 0.00 | 0.00 | 0.00 | 75 | 1010.7 |
| 20260505051509 | 13 | 199 | 1.6 | 4.8 | 0.00 | 0.00 | 0.00 | 75 | 1010.7 |
| 20260505051008 | 13 | 210 | 1.6 | 4.8 | 0.00 | 0.00 | 0.00 | 74 | 1010.7 |
| 20260505041509 | 14 | 177 | 1.6 | 4.8 | 0.00 | 0.00 | 0.00 | 70 | 1010.8 |
| 20260505040509 | 14 | 192 | 1.6 | 6.4 | 0.00 | 0.00 | 0.00 | 70 | 1010.8 |
| 20260505040010 | 14 | 191 | 1.6 | 6.4 | 0.00 | 0.00 | 0.00 | 69 | 1010.9 |
| 20260505035509 | 14 | 206 | 1.6 | 6.4 | 0.00 | 0.00 | 0.00 | 69 | 1010.9 |
| 20260505034509 | 15 | 208 | 1.6 | 6.4 | 0.00 | 0.00 | 0.00 | 68 | 1010.8 |
| 20260505033009 | 15 | 205 | 1.6 | 6.4 | 0.00 | 0.00 | 0.00 | 67 | 1010.8 |
| 20260505032508 | 15 | 184 | 3.2 | 6.4 | 0.00 | 0.00 | 0.00 | 66 | 1010.8 |
| 20260505032008 | 15 | 177 | 3.2 | 6.4 | 0.00 | 0.00 | 0.00 | 66 | 1010.9 |
| 20260505031008 | 15 | 175 | 1.6 | 6.4 | 0.00 | 0.00 | 0.00 | 65 | 1011.0 |
| 20260505030508 | 15 | 172 | 3.2 | 9.7 | 0.00 | 0.00 | 0.00 | 65 | 1011.0 |
| 20260505030009 | 15 | 175 | 3.2 | 11.3 | 0.00 | 0.00 | 0.00 | 65 | 1011.1 |
| 20260505025509 | 15 | 167 | 3.2 | 11.3 | 0.00 | 0.00 | 0.00 | 64 | 1011.0 |
| 20260505025009 | 15 | 177 | 3.2 | 8.0 | 0.00 | 0.00 | 0.00 | 64 | 1011.0 |
| 20260505024510 | 15 | 169 | 3.2 | 6.4 | 0.00 | 0.00 | 0.00 | 63 | 1011.0 |
| 20260505024009 | 15 | 150 | 1.6 | 4.8 | 0.00 | 0.00 | 0.00 | 63 | 1011.0 |
| 20260505023508 | 16 | 163 | 1.6 | 4.8 | 0.00 | 0.00 | 0.00 | 62 | 1011.1 |
| 20260505023009 | 16 | 163 | 1.6 | 4.8 | 0.00 | 0.00 | 0.00 | 61 | 1011.1 |
| 20260505022508 | 16 | 156 | 1.6 | 6.4 | 0.00 | 0.00 | 0.00 | 61 | 1011.1 |
| 20260505022009 | 16 | 163 | 1.6 | 9.7 | 0.00 | 0.00 | 0.00 | 61 | 1011.1 |
| 20260505021509 | 16 | 159 | 3.2 | 9.7 | 0.00 | 0.00 | 0.00 | 60 | 1011.2 |
| 20260505021008 | 16 | 136 | 3.2 | 9.7 | 0.00 | 0.00 | 0.00 | 59 | 1011.2 |
| 20260505020508 | 16 | 140 | 3.2 | 9.7 | 0.00 | 0.00 | 0.00 | 59 | 1011.1 |
| 20260505020009 | 16 | 177 | 3.2 | 9.7 | 0.00 | 0.00 | 0.00 | 58 | 1011.1 |
| 20260505015508 | 16 | 193 | 3.2 | 9.7 | 0.00 | 0.00 | 0.00 | 57 | 1011.1 |
| 20260505015009 | 16 | 172 | 3.2 | 9.7 | 0.00 | 0.00 | 0.00 | 57 | 1011.1 |
| 20260505013509 | 16 | 153 | 3.2 | 6.4 | 0.00 | 0.00 | 0.00 | 56 | 1011.1 |
| 20260505013008 | 16 | 191 | 3.2 | 9.7 | 0.00 | 0.00 | 0.00 | 55 | 1011.0 |
| 20260505012509 | 16 | 187 | 3.2 | 9.7 | 0.00 | 0.00 | 0.00 | 54 | 1011.1 |
| 20260505012008 | 16 | 152 | 1.6 | 6.4 | 0.00 | 0.00 | 0.00 | 53 | 1011.0 |
| 20260505011511 | 16 | 184 | 3.2 | 6.4 | 0.00 | 0.00 | 0.00 | 52 | 1010.9 |
| 20260505011008 | 16 | 164 | 3.2 | 6.4 | 0.00 | 0.00 | 0.00 | 51 | 1010.9 |
| 20260505010508 | 16 | 155 | 1.6 | 6.4 | 0.00 | 0.00 | 0.00 | 50 | 1010.8 |
| 20260505005008 | 16 | 161 | 0.0 | 6.4 | 0.00 | 0.00 | 0.00 | 48 | 1010.5 |
| 20260505004509 | 16 | 167 | 0.0 | 4.8 | 0.00 | 0.00 | 0.00 | 48 | 1010.5 |
| 20260505003509 | 17 | 210 | 0.0 | 3.2 | 0.00 | 0.00 | 0.00 | 46 | 1010.4 |
| 20260505003008 | 17 | 234 | 0.0 | 3.2 | 0.00 | 0.00 | 0.00 | 45 | 1010.3 |
| 20260505002509 | 18 | 220 | 0.0 | 3.2 | 0.00 | 0.00 | 0.00 | 44 | 1010.3 |
| 20260505002008 | 18 | 187 | 0.0 | 3.2 | 0.00 | 0.00 | 0.00 | 43 | 1010.2 |
| 20260505001008 | 18 | 211 | 1.6 | 9.7 | 0.00 | 0.00 | 0.00 | 42 | 1010.2 |
| 20260505000508 | 19 | 215 | 3.2 | 9.7 | 0.00 | 0.00 | 0.00 | 40 | 1010.1 |
| 20260505000009 | 20 | 222 | 3.2 | 9.7 | 0.00 | 0.00 | 0.00 | 41 | 1010.0 |
| 20260504235508 | 20 | 225 | 1.6 | 11.3 | 0.00 | 0.00 | 0.00 | 39 | 1010.0 |
| 20260504235008 | 20 | 214 | 3.2 | 19.3 | 0.00 | 0.00 | 0.00 | 38 | 1010.0 |
| 20260504234509 | 20 | 208 | 4.8 | 19.3 | 0.00 | 0.00 | 0.00 | 37 | 1010.0 |
| 20260504234008 | 20 | 208 | 4.8 | 14.5 | 0.00 | 0.00 | 0.00 | 37 | 1009.9 |
| 20260504233509 | 21 | 212 | 4.8 | 12.9 | 0.00 | 0.00 | 0.00 | 37 | 1009.9 |
| 20260504233008 | 21 | 217 | 4.8 | 12.9 | 0.00 | 0.00 | 0.00 | 38 | 1009.8 |
| 20260504232509 | 21 | 219 | 4.8 | 14.5 | 0.00 | 0.00 | 0.00 | 34 | 1009.8 |
| 20260504232009 | 21 | 217 | 4.8 | 14.5 | 0.00 | 0.00 | 0.00 | 34 | 1009.7 |
| 20260504231508 | 21 | 216 | 4.8 | 12.9 | 0.00 | 0.00 | 0.00 | 34 | 1009.7 |
| 20260504230509 | 22 | 219 | 4.8 | 17.7 | 0.00 | 0.00 | 0.00 | 33 | 1009.7 |
| 20260504230008 | 22 | 222 | 4.8 | 14.5 | 0.00 | 0.00 | 0.00 | 32 | 1009.8 |
| 20260504225508 | 22 | 216 | 6.4 | 22.5 | 0.00 | 0.00 | 0.00 | 32 | 1009.7 |
| 20260504225009 | 22 | 223 | 6.4 | 22.5 | 0.00 | 0.00 | 0.00 | 32 | 1009.8 |
| 20260504224508 | 22 | 227 | 4.8 | 16.1 | 0.00 | 0.00 | 0.00 | 32 | 1009.8 |
| 20260504224009 | 22 | 223 | 6.4 | 20.9 | 0.00 | 0.00 | 0.00 | 33 | 1009.6 |
| 20260504223509 | 22 | 224 | 6.4 | 20.9 | 0.00 | 0.00 | 0.00 | 31 | 1009.7 |
| 20260504223009 | 22 | 214 | 4.8 | 16.1 | 0.00 | 0.00 | 0.00 | 32 | 1009.6 |
| 20260504222508 | 22 | 213 | 6.4 | 22.5 | 0.00 | 0.00 | 0.00 | 32 | 1009.6 |
| 20260504222009 | 22 | 221 | 6.4 | 22.5 | 0.00 | 0.00 | 0.00 | 31 | 1009.6 |
| 20260504221508 | 22 | 220 | 6.4 | 19.3 | 0.00 | 0.00 | 0.00 | 31 | 1009.7 |
| 20260504221009 | 22 | 223 | 6.4 | 19.3 | 0.00 | 0.00 | 0.00 | 32 | 1009.8 |
| 20260504220008 | 22 | 222 | 6.4 | 19.3 | 0.00 | 0.00 | 0.00 | 32 | 1009.7 |
| 20260504215509 | 23 | 223 | 6.4 | 19.3 | 0.00 | 0.00 | 0.00 | 30 | 1009.8 |
| 20260504215008 | 23 | 230 | 4.8 | 20.9 | 0.00 | 0.00 | 0.00 | 30 | 1009.8 |
| 20260504214509 | 23 | 234 | 4.8 | 20.9 | 0.00 | 0.00 | 0.00 | 31 | 1010.0 |
| 20260504213508 | 23 | 217 | 6.4 | 16.1 | 0.00 | 0.00 | 0.00 | 33 | 1009.9 |
| 20260504213009 | 23 | 229 | 6.4 | 19.3 | 0.00 | 0.00 | 0.00 | 29 | 1009.9 |
| 20260504212508 | 23 | 246 | 4.8 | 19.3 | 0.00 | 0.00 | 0.00 | 29 | 1009.9 |
| 20260504212009 | 23 | 243 | 4.8 | 17.7 | 0.00 | 0.00 | 0.00 | 29 | 1009.9 |
| 20260504211508 | 23 | 233 | 6.4 | 30.6 | 0.00 | 0.00 | 0.00 | 29 | 1009.8 |
| 20260504210509 | 23 | 242 | 6.4 | 19.3 | 0.00 | 0.00 | 0.00 | 29 | 1009.9 |
| 20260504210009 | 23 | 253 | 6.4 | 19.3 | 0.00 | 0.00 | 0.00 | 28 | 1009.9 |
| 20260504205508 | 23 | 242 | 6.4 | 20.9 | 0.00 | 0.00 | 0.00 | 30 | 1009.9 |
| 20260504205009 | 23 | 231 | 6.4 | 20.9 | 0.00 | 0.00 | 0.00 | 30 | 1009.9 |
| 20260504204509 | 23 | 231 | 6.4 | 20.9 | 0.00 | 0.00 | 0.00 | 30 | 1009.9 |
| 20260504204008 | 23 | 227 | 8.0 | 20.9 | 0.00 | 0.00 | 0.00 | 28 | 1009.9 |
| 20260504203508 | 23 | 225 | 8.0 | 20.9 | 0.00 | 0.00 | 0.00 | 30 | 1009.9 |
| 20260504202008 | 23 | 246 | 6.4 | 19.3 | 0.00 | 0.00 | 0.00 | 28 | 1009.9 |
| 20260504201509 | 23 | 222 | 8.0 | 19.3 | 0.00 | 0.00 | 0.00 | 29 | 1009.8 |
| 20260504201008 | 23 | 216 | 6.4 | 19.3 | 0.00 | 0.00 | 0.00 | 31 | 1010.0 |
| 20260504200509 | 23 | 217 | 4.8 | 14.5 | 0.00 | 0.00 | 0.00 | 30 | 1009.9 |
| 20260504200009 | 23 | 219 | 4.8 | 17.7 | 0.00 | 0.00 | 0.00 | 29 | 1010.0 |
| 20260504195009 | 23 | 217 | 8.0 | 19.3 | 0.00 | 0.00 | 0.00 | 29 | 1010.0 |
| 20260504194509 | 22 | 219 | 6.4 | 19.3 | 0.00 | 0.00 | 0.00 | 29 | 1010.2 |
| 20260504193509 | 22 | 218 | 8.0 | 22.5 | 0.00 | 0.00 | 0.00 | 31 | 1010.2 |
| 20260504193008 | 22 | 221 | 6.4 | 22.5 | 0.00 | 0.00 | 0.00 | 30 | 1010.4 |
| 20260504192509 | 22 | 226 | 8.0 | 25.7 | 0.00 | 0.00 | 0.00 | 29 | 1010.5 |
| 20260504192008 | 22 | 220 | 11.3 | 25.7 | 0.00 | 0.00 | 0.00 | 32 | 1010.5 |
| 20260504191009 | 22 | 226 | 6.4 | 27.4 | 0.00 | 0.00 | 0.00 | 30 | 1010.7 |
| 20260504190009 | 22 | 230 | 6.4 | 19.3 | 0.00 | 0.00 | 0.00 | 30 | 1010.8 |
| 20260504185508 | 22 | 229 | 6.4 | 19.3 | 0.00 | 0.00 | 0.00 | 29 | 1010.9 |
| 20260504184509 | 22 | 241 | 8.0 | 20.9 | 0.00 | 0.00 | 0.00 | 29 | 1011.1 |
| 20260504184008 | 22 | 248 | 6.4 | 19.3 | 0.00 | 0.00 | 0.00 | 30 | 1011.1 |
| 20260504183509 | 22 | 242 | 6.4 | 19.3 | 0.00 | 0.00 | 0.00 | 32 | 1011.3 |
| 20260504183008 | 22 | 238 | 6.4 | 19.3 | 0.00 | 0.00 | 0.00 | 30 | 1011.4 |
| 20260504182509 | 22 | 245 | 6.4 | 19.3 | 0.00 | 0.00 | 0.00 | 30 | 1011.4 |
| 20260504182009 | 22 | 220 | 8.0 | 32.2 | 0.00 | 0.00 | 0.00 | 30 | 1011.5 |
| 20260504181509 | 22 | 211 | 8.0 | 32.2 | 0.00 | 0.00 | 0.00 | 32 | 1011.4 |
| 20260504181008 | 22 | 217 | 6.4 | 22.5 | 0.00 | 0.00 | 0.00 | 33 | 1011.5 |
| 20260504180509 | 21 | 232 | 8.0 | 22.5 | 0.00 | 0.00 | 0.00 | 32 | 1011.6 |
| 20260504180008 | 21 | 230 | 8.0 | 22.5 | 0.00 | 0.00 | 0.00 | 31 | 1011.6 |
| 20260504175509 | 21 | 229 | 9.7 | 22.5 | 0.00 | 0.00 | 0.00 | 30 | 1011.8 |
| 20260504174509 | 21 | 241 | 4.8 | 14.5 | 0.00 | 0.00 | 0.00 | 34 | 1012.0 |
| 20260504174009 | 21 | 236 | 4.8 | 14.5 | 0.00 | 0.00 | 0.00 | 35 | 1012.0 |
| 20260504173508 | 21 | 243 | 6.4 | 19.3 | 0.00 | 0.00 | 0.00 | 32 | 1012.2 |
| 20260504173009 | 21 | 255 | 6.4 | 19.3 | 0.00 | 0.00 | 0.00 | 31 | 1012.2 |
| 20260504172508 | 21 | 243 | 6.4 | 22.5 | 0.00 | 0.00 | 0.00 | 32 | 1012.3 |
| 20260504172009 | 21 | 232 | 6.4 | 22.5 | 0.00 | 0.00 | 0.00 | 31 | 1012.4 |
| 20260504171509 | 20 | 237 | 6.4 | 19.3 | 0.00 | 0.00 | 0.00 | 32 | 1012.5 |
| 20260504170508 | 20 | 233 | 6.4 | 22.5 | 0.00 | 0.00 | 0.00 | 32 | 1012.5 |
| 20260504151009 | 18 | 226 | 4.8 | 17.7 | 0.00 | 0.00 | 0.00 | 42 | 1013.7 |
| 20260504141009 | 16 | 213 | 6.4 | 20.9 | 0.00 | 0.00 | 0.00 | 49 | 1013.8 |
| 20260504140508 | 16 | 221 | 6.4 | 19.3 | 0.00 | 0.00 | 0.00 | 51 | 1013.8 |